FW1075 Weather Reports


time (UTC)temp
C
wind
direction
speed
KPH
gust
KPH
rain 1hr
cm
rain 24hr
cm
rain mn
cm
humidity
%
barometer
mb
20260906062122 18 9 1.6 4.8 0.56 0.56 0.56 99 1010.6
20260906061122 18 94 1.6 6.4 0.56 0.56 0.56 99 1010.6
20260906060122 18 138 3.2 6.4 0.56 0.56 0.56 99 1010.6
20260906055122 19 150 3.2 9.7 0.48 0.48 0.48 99 1010.9
20260906054122 20 96 4.8 9.7 0.00 0.00 0.00 98 1010.6
20260906053122 21 114 4.8 8.0 0.00 0.00 0.00 97 1010.5
20260906052123 21 128 1.6 4.8 0.00 0.00 0.00 96 1010.5
20260906051144 21 212 1.6 3.2 0.00 0.00 0.00 96 1010.6
20260906050121 20 223 1.6 3.2 0.00 0.00 0.00 97 1010.6
20260906045142 20 114 3.2 8.0 0.00 0.00 0.00 97 1010.6
20260906044121 20 129 3.2 6.4 0.00 0.00 0.00 97 1010.6
20260906043121 20 108 1.6 4.8 0.00 0.00 0.00 96 1010.6
20260906042143 20 98 0.0 3.2 0.00 0.00 0.00 95 1010.7
20260906041123 20 96 1.6 3.2 0.00 0.00 0.00 95 1010.6
20260906040123 20 94 1.6 3.2 0.00 0.00 0.00 94 1010.6
20260906035123 20 102 1.6 3.2 0.00 0.00 0.00 90 1010.6
20260906034121 20 55 0.0 3.2 0.00 0.00 0.00 90 1010.4
20260906033122 20 78 1.6 3.2 0.00 0.00 0.00 90 1010.4
20260906032122 21 112 1.6 4.8 0.00 0.00 0.00 89 1010.2
20260906031123 21 124 3.2 4.8 0.00 0.00 0.00 88 1010.2
20260906030124 21 96 1.6 3.2 0.00 0.00 0.00 86 1010.2
20260906025145 21 109 0.0 3.2 0.00 0.00 0.00 85 1010.2
20260906024124 21 89 1.6 3.2 0.00 0.00 0.00 83 1010.2
20260906023122 21 294 1.6 3.2 0.00 0.00 0.00 82 1010.1
20260906022122 21 33 3.2 6.4 0.00 0.00 0.00 80 1010.2
20260906021122 21 92 3.2 6.4 0.00 0.00 0.00 79 1010.0
20260906020122 21 54 1.6 4.8 0.00 0.00 0.00 78 1010.0
20260906015143 21 61 3.2 4.8 0.00 0.00 0.00 77 1009.9
20260906014142 22 113 3.2 6.4 0.00 0.00 0.00 76 1009.8
20260906013142 22 43 3.2 6.4 0.00 0.00 0.00 75 1009.8
20260906012127 22 71 3.2 6.4 0.00 0.00 0.00 75 1009.6
20260906011121 22 14 3.2 6.4 0.00 0.00 0.00 75 1009.5
20260906010124 22 344 3.2 8.0 0.00 0.00 0.00 75 1009.5
20260906005122 23 188 1.6 6.4 0.00 0.00 0.00 75 1009.5
20260906004121 23 298 1.6 6.4 0.00 0.00 0.00 75 1009.4
20260906003121 23 6 1.6 6.4 0.00 0.00 0.00 74 1009.2
20260906002121 23 74 3.2 4.8 0.00 0.00 0.00 73 1009.0
20260906001121 23 81 3.2 8.0 0.00 0.00 0.00 73 1009.0
20260906000142 23 93 3.2 6.4 0.00 0.00 0.00 71 1009.0
20260905235121 23 109 4.8 6.4 0.00 0.00 0.00 70 1008.8
20260905234123 24 87 3.2 6.4 0.00 0.00 0.00 69 1008.8
20260905233121 25 111 3.2 6.4 0.00 0.00 0.00 68 1008.7
20260905232124 25 0 4.8 11.3 0.00 0.00 0.00 66 1008.7
20260905231142 25 6 3.2 8.0 0.00 0.00 0.00 64 1008.5
20260905230127 25 357 3.2 8.0 0.00 0.00 0.00 64 1008.5
20260905225125 25 322 4.8 11.3 0.00 0.00 0.00 62 1008.4
20260905224122 26 3 4.8 11.3 0.00 0.00 0.00 61 1008.4
20260905223122 26 283 6.4 11.3 0.00 0.00 0.00 60 1008.4
20260905222143 26 309 6.4 9.7 0.00 0.00 0.00 60 1008.2
20260905221122 26 343 4.8 9.7 0.00 0.00 0.00 59 1008.1
20260905220121 26 354 6.4 14.5 0.00 0.00 0.00 59 1008.1
20260905215121 27 2 4.8 9.7 0.00 0.00 0.00 58 1008.0
20260905214121 27 312 4.8 8.0 0.00 0.00 0.00 56 1008.1
20260905213121 27 284 6.4 9.7 0.00 0.00 0.00 56 1008.0
20260905212121 27 281 4.8 11.3 0.00 0.00 0.00 55 1007.9
20260905211121 28 330 6.4 9.7 0.00 0.00 0.00 55 1008.0
20260905210121 28 314 6.4 11.3 0.00 0.00 0.00 54 1008.0
20260905205142 28 311 4.8 8.0 0.00 0.00 0.00 53 1008.0
20260905204121 28 252 4.8 11.3 0.00 0.00 0.00 54 1007.9
20260905203142 27 295 4.8 8.0 0.00 0.00 0.00 56 1007.8
20260905202121 28 315 4.8 9.7 0.00 0.00 0.00 55 1007.8
20260905201121 28 312 4.8 8.0 0.00 0.00 0.00 54 1007.9
20260905200121 30 321 6.4 9.7 0.00 0.00 0.00 54 1007.9
20260905195121 29 281 6.4 12.9 0.00 0.00 0.00 53 1007.9
20260905194121 29 4 6.4 11.3 0.00 0.00 0.00 53 1008.0
20260905193122 29 297 4.8 11.3 0.00 0.00 0.00 51 1008.0
20260905192142 29 90 4.8 8.0 0.00 0.00 0.00 55 1008.1
20260905191121 30 330 3.2 11.3 0.00 0.00 0.00 53 1008.2
20260905190123 29 297 4.8 8.0 0.00 0.00 0.00 54 1008.2
20260905185122 28 49 4.8 9.7 0.00 0.00 0.00 56 1008.2
20260905184143 27 11 3.2 8.0 0.00 0.00 0.00 57 1008.2
20260905183122 27 62 3.2 6.4 0.00 0.00 0.00 58 1008.4
20260905182123 28 3 4.8 8.0 0.00 0.00 0.00 58 1008.5
20260905181143 27 313 4.8 9.7 0.00 0.00 0.00 59 1008.5
20260905180142 27 341 6.4 12.9 0.00 0.00 0.00 60 1008.5
20260905175144 27 334 3.2 8.0 0.00 0.00 0.00 60 1008.5
20260905174121 27 33 6.4 11.3 0.00 0.00 0.00 62 1008.6
20260905173143 26 322 4.8 9.7 0.00 0.00 0.00 64 1008.7
20260905172142 26 307 4.8 9.7 0.00 0.00 0.00 62 1008.8
20260905171122 26 311 6.4 9.7 0.00 0.00 0.00 62 1008.8
20260905170121 26 305 6.4 12.9 0.00 0.00 0.00 63 1008.8
20260905165122 26 16 4.8 9.7 0.00 0.00 0.00 63 1008.8
20260905164122 26 341 6.4 11.3 0.00 0.00 0.00 64 1008.8
20260905163123 26 311 6.4 12.9 0.00 0.00 0.00 62 1008.8
20260905162121 27 308 6.4 9.7 0.00 0.00 0.00 59 1008.8
20260905161122 27 173 6.4 9.7 0.00 0.00 0.00 59 1008.7
20260905160126 27 36 4.8 12.9 0.00 0.00 0.00 60 1008.7
20260905155121 27 351 6.4 16.1 0.00 0.00 0.00 60 1008.8
20260905154121 28 311 4.8 11.3 0.00 0.00 0.00 60 1008.8
20260905153121 27 85 6.4 11.3 0.00 0.00 0.00 62 1008.9
20260905152129 26 247 4.8 9.7 0.00 0.00 0.00 63 1008.8
20260905152122 26 233 4.8 9.7 0.00 0.00 0.00 62 1008.8
20260905151122 25 24 6.4 12.9 0.00 0.00 0.00 66 1008.8
20260905150123 26 257 4.8 8.0 0.00 0.00 0.00 66 1008.8
20260905145145 26 55 6.4 11.3 0.00 0.00 0.00 66 1008.8
20260905144123 26 81 4.8 9.7 0.00 0.00 0.00 67 1008.7
20260905143122 26 286 4.8 9.7 0.00 0.00 0.00 68 1008.6
20260905142122 26 58 6.4 12.9 0.00 0.00 0.00 67 1008.6
20260905141122 25 90 6.4 11.3 0.00 0.00 0.00 69 1008.6
20260905140121 25 40 6.4 12.9 0.00 0.00 0.00 69 1008.6
20260905135121 25 337 6.4 14.5 0.00 0.00 0.00 70 1008.6
20260905134124 25 333 6.4 11.3 0.00 0.00 0.00 69 1008.6
20260905133124 25 333 6.4 9.7 0.00 0.00 0.00 71 1008.7
20260905132123 25 332 4.8 12.9 0.00 0.00 0.00 70 1008.7
20260905131121 25 292 3.2 8.0 0.00 0.00 0.00 70 1008.8
20260905130123 25 298 4.8 8.0 0.00 0.00 0.00 70 1008.8
20260905125121 25 317 4.8 8.0 0.00 0.00 0.00 71 1009.1
20260905124122 23 310 4.8 11.3 0.00 0.00 0.00 73 1009.1
20260905123122 23 309 6.4 9.7 0.00 0.00 0.00 73 1009.1
20260905122123 23 295 4.8 8.0 0.00 0.00 0.00 74 1009.0
20260905121127 23 5 4.8 9.7 0.00 0.00 0.00 75 1009.1
20260905120122 23 294 4.8 8.0 0.00 0.00 0.00 76 1009.1
20260905115124 22 351 3.2 6.4 0.00 0.00 0.00 77 1009.0
20260905114121 22 360 3.2 6.4 0.00 0.00 0.00 79 1008.8
20260905113122 22 324 3.2 6.4 0.00 0.00 0.00 80 1008.8
20260905112143 21 324 1.6 4.8 0.00 0.03 0.00 82 1008.7
20260905111123 21 302 1.6 4.8 0.00 0.03 0.00 84 1008.4
20260905110124 21 113 0.0 0.0 0.00 0.03 0.00 86 1008.4
20260905105126 20 203 0.0 0.0 0.00 0.03 0.00 88 1008.2
20260905104122 20 343 0.0 3.2 0.00 0.03 0.00 88 1008.0
20260905103123 20 309 1.6 3.2 0.00 0.03 0.00 88 1008.1
20260905102143 20 270 0.0 3.2 0.00 0.03 0.00 86 1008.2
20260905101123 20 320 0.0 3.2 0.00 0.03 0.00 85 1008.1
20260905100143 21 155 0.0 3.2 0.00 0.03 0.00 83 1008.1
20260905095121 21 27 1.6 6.4 0.00 0.03 0.00 82 1008.0
20260905094121 21 358 1.6 4.8 0.00 0.03 0.00 82 1007.9
20260905093121 21 337 1.6 4.8 0.00 0.03 0.00 81 1007.9
20260905092121 21 353 1.6 4.8 0.00 0.03 0.00 81 1007.9
20260905091121 21 321 1.6 3.2 0.00 0.03 0.00 81 1007.8
20260905090121 21 21 1.6 3.2 0.00 0.03 0.00 80 1007.8
20260905085121 22 323 1.6 4.8 0.00 0.03 0.00 80 1007.8
20260905084121 22 349 1.6 6.4 0.00 0.03 0.00 80 1007.9
20260905083122 22 3 1.6 4.8 0.00 0.03 0.00 80 1007.9
20260905082121 22 16 3.2 8.0 0.00 0.03 0.00 80 1007.9
20260905081123 22 1 1.6 6.4 0.00 0.03 0.00 81 1007.9
20260905080121 22 336 3.2 6.4 0.00 0.03 0.00 81 1007.9
20260905075142 22 300 1.6 6.4 0.00 0.03 0.00 81 1007.9
20260905074121 22 321 3.2 6.4 0.00 0.03 0.00 80 1007.9
20260905073123 22 313 3.2 6.4 0.00 0.03 0.00 80 1007.9
20260905072121 22 10 1.6 4.8 0.00 0.03 0.00 81 1007.8
20260905071122 22 353 3.2 6.4 0.00 0.03 0.00 81 1007.8
20260905070122 22 360 1.6 4.8 0.00 0.08 0.00 81 1007.8
20260905065143 22 55 1.6 4.8 0.00 0.08 0.00 81 1007.9
20260905064122 22 357 1.6 4.8 0.00 0.08 0.00 81 1008.0
20260905063123 22 289 1.6 6.4 0.00 0.08 0.00 80 1008.1